Regional Weather Roundup
Issued by NWS

Home | Current Version | Previous Version | Text Only | Print | Product List | Glossary Off
Versions: 1 2 3 4 5 6 7 8 9 10 11 12 13 14 15 16 17 18 19 20 21 22 23 24 25 26 27 28 29 30 31 32 33 34 35 36 37 38 39 40 41 42 43 44 45 46 47 48 49 50

139
ASUS43 KOAX 231510
RWRNE

WEATHER ROUNDUP FOR NEBRASKA
NATIONAL WEATHER SERVICE OMAHA NE
1000 AM CDT WED AUG 23 2017

NOTES: SATELLITE DATA IS BEING USED TO AUGMENT CLOUD COVER ABOVE
       12000 FEET.
       "FAIR" INDICATES FEW OR NO CLOUDS BELOW 12,000 FEET WITH NO
       SIGNIFICANT WEATHER AND/OR OBSTRUCTIONS TO VISIBILITY.


NEZ001>004-019>022-054>056-231600-
NEBRASKA PANHANDLE

CITY           SKY/WX    TMP DP  RH WIND       PRES   REMARKS
SCOTTSBLUFF    SUNNY     65  55  70 SE5       30.13S
ALLIANCE       SUNNY     65  53  65 S14       30.13S
CHADRON        SUNNY     72  55  55 SW9       30.08S
GORDON         FAIR      70  52  53 SW13      30.10F
KIMBALL        SUNNY     66  57  72 SW5       30.18R
SIDNEY         SUNNY     68  56  65 S12       30.16F
$$

NEZ057>060-069>072-079>082-231600-
SOUTHWEST NEBRASKA

CITY           SKY/WX    TMP DP  RH WIND       PRES   REMARKS
NORTH PLATTE   SUNNY     68  52  56 S13       30.17F
IMPERIAL       SUNNY     69  47  45 S10G24    30.17F
LEXINGTON      SUNNY     67  55  64 SW9       30.19S
MCCOOK         SUNNY     68  51  54 S10       30.19S
OGALLALA       PTSUNNY   68  51  54 SW9G17    30.17S
$$

NEZ005>010-023>029-035>040-094-231600-
NORTH CENTRAL NEBRASKA

CITY           SKY/WX    TMP DP  RH WIND       PRES   REMARKS
VALENTINE      SUNNY     74  50  42 SW21G26   30.09F
AINSWORTH      SUNNY     69  52  53 SW16G25   30.11F
BROKEN BOW     SUNNY     69  51  52 S15G21    30.16S
O`NEILL        PTSUNNY   68  57  68 SW12      30.14S
ORD            SUNNY     65  54  67 S10       30.15S
THEDFORD       SUNNY     71  49  46 S24G32    30.15R
$$

NEZ041-046>049-061>064-073>077-083>087-231600-
SOUTH CENTRAL NEBRASKA

CITY           SKY/WX    TMP DP  RH WIND       PRES   REMARKS
GRAND ISLAND   SUNNY     68  54  60 S13       30.18S
AURORA         SUNNY     67  56  67 SW7       30.18S
HASTINGS       SUNNY     66  53  63 S12       30.19S
HEBRON         SUNNY     70  54  56 S10       30.18F
HOLDREGE       SUNNY     65  53  63 SW12      30.19S
KEARNEY        SUNNY     65  54  67 S15       30.18F
YORK           SUNNY     66  57  72 SW9       30.18S
$$

NEZ011>018-030>034-042>045-231600-
NORTHEAST NEBRASKA

CITY           SKY/WX    TMP DP  RH WIND       PRES   REMARKS
NORFOLK        SUNNY     68  55  63 SW9       30.15S
ALBION         SUNNY     67  58  73 S8        30.17S
BLAIR          SUNNY     68  58  69 S3        30.17S
COLUMBUS       SUNNY     68  55  63 S9        30.17F
FREMONT        SUNNY     69  54  60 CALM      30.17F
TEKAMAH        SUNNY     66  58  75 SE3       30.16F
WAYNE          SUNNY     68  61  78 SW5       30.16S
$$

NEZ050>053-065>068-078-088>093-231600-
SOUTHEAST NEBRASKA

CITY           SKY/WX    TMP DP  RH WIND       PRES   REMARKS
LINCOLN        SUNNY     67  57  70 SW5       30.19R
OMAHA EPPLEY   SUNNY     69  57  65 CALM      30.17S
BEATRICE       SUNNY     68  58  69 S5        30.18S
FALLS CITY     SUNNY     68  58  70 CALM      30.17S
PLATTSMOUTH    SUNNY     67  56  67 CALM      30.18S
$$

NEZ044-045-051>053-067-231600-
OMAHA AREA

CITY           SKY/WX    TMP DP  RH WIND       PRES   REMARKS
OMAHA EPPLEY   SUNNY     69  57  65 CALM      30.17S
BLAIR          SUNNY     68  58  69 S3        30.17S
FREMONT        SUNNY     69  54  60 CALM      30.17F
MILLARD        SUNNY     72  54  53 CALM      30.17F
OFFUTT AFB     SUNNY     68  54  62 CALM      30.17S
PLATTSMOUTH    SUNNY     67  56  67 CALM      30.18S
WAHOO          FAIR      68  56  67 SW5       30.17S
$$




USA.gov is the U.S. government's official web portal to all federal, state and local government web resources and services.